Time,TemperatureF,DewpointF,PressureIn,WindDirection,WindDirectionDegrees,WindSpeedMPH,WindSpeedGustMPH,Humidity,HourlyPrecipIn,Conditions,Clouds,dailyrainin,SoftwareType,DateUTC
2013-06-29 00:11:00,62.0,-99.9,-100.00,ENE,65,10.0,12.0,-999,-99.99,,,-99.99,,2013-06-29 04:11:00,
2013-06-29 00:26:00,62.0,-99.9,-100.00,ENE,65,10.0,12.0,-999,-99.99,,,-99.99,,2013-06-29 04:26:00,
2013-06-29 00:32:00,62.0,-99.9,-100.00,ENE,65,10.0,12.0,-999,-99.99,,,-99.99,,2013-06-29 04:32:00,
2013-06-29 00:40:00,62.0,-99.9,-100.00,NE,49,12.0,16.0,-999,-99.99,,,-99.99,,2013-06-29 04:40:00,
2013-06-29 01:31:00,62.0,-99.9,-100.00,NE,49,12.0,16.0,-999,-99.99,,,-99.99,,2013-06-29 05:31:00,
2013-06-29 01:40:00,62.0,-99.9,-100.00,NE,36,12.0,16.0,-999,-99.99,,,-99.99,,2013-06-29 05:40:00,
2013-06-29 02:12:00,62.0,-99.9,-100.00,NE,36,12.0,16.0,-999,-99.99,,,-99.99,,2013-06-29 06:12:00,
2013-06-29 02:22:00,62.0,-99.9,-100.00,NE,36,12.0,16.0,-999,-99.99,,,-99.99,,2013-06-29 06:22:00,
2013-06-29 02:34:00,62.0,-99.9,-100.00,NE,36,12.0,16.0,-999,-99.99,,,-99.99,,2013-06-29 06:34:00,
2013-06-29 02:40:00,62.0,-99.9,-100.00,NE,35,14.0,16.0,-999,-99.99,,,-99.99,,2013-06-29 06:40:00,
2013-06-29 03:12:00,62.0,-99.9,-100.00,NE,35,14.0,16.0,-999,-99.99,,,-99.99,,2013-06-29 07:12:00,
2013-06-29 03:22:00,62.0,-99.9,-100.00,NE,35,14.0,16.0,-999,-99.99,,,-99.99,,2013-06-29 07:22:00,
2013-06-29 03:33:00,62.0,-99.9,-100.00,NE,35,14.0,16.0,-999,-99.99,,,-99.99,,2013-06-29 07:33:00,
2013-06-29 03:40:00,62.0,-99.9,-100.00,NE,40,13.0,17.0,-999,-99.99,,,-99.99,,2013-06-29 07:40:00,
2013-06-29 04:12:00,62.0,-99.9,-100.00,NE,40,13.0,17.0,-999,-99.99,,,-99.99,,2013-06-29 08:12:00,
2013-06-29 04:22:00,62.0,-99.9,-100.00,NE,40,13.0,17.0,-999,-99.99,,,-99.99,,2013-06-29 08:22:00,
2013-06-29 04:34:00,62.0,-99.9,-100.00,NE,40,13.0,17.0,-999,-99.99,,,-99.99,,2013-06-29 08:34:00,
2013-06-29 04:40:00,62.0,-99.9,-100.00,NE,36,16.0,17.0,-999,-99.99,,,-99.99,,2013-06-29 08:40:00,
2013-06-29 05:12:00,62.0,-99.9,-100.00,NE,36,16.0,17.0,-999,-99.99,,,-99.99,,2013-06-29 09:12:00,
2013-06-29 05:22:00,62.0,-99.9,-100.00,NE,36,16.0,17.0,-999,-99.99,,,-99.99,,2013-06-29 09:22:00,
2013-06-29 05:33:00,62.0,-99.9,-100.00,NE,36,16.0,17.0,-999,-99.99,,,-99.99,,2013-06-29 09:33:00,
2013-06-29 05:40:00,61.0,-99.9,-100.00,NE,44,14.0,17.0,-999,-99.99,,,-99.99,,2013-06-29 09:40:00,
2013-06-29 06:11:00,61.0,-99.9,-100.00,NE,44,14.0,17.0,-999,-99.99,,,-99.99,,2013-06-29 10:11:00,
2013-06-29 06:22:00,61.0,-99.9,-100.00,NE,44,14.0,17.0,-999,-99.99,,,-99.99,,2013-06-29 10:22:00,
2013-06-29 06:33:00,61.0,-99.9,-100.00,NE,44,14.0,17.0,-999,-99.99,,,-99.99,,2013-06-29 10:33:00,
2013-06-29 06:40:00,62.0,-99.9,-100.00,NE,42,13.0,16.0,-999,-99.99,,,-99.99,,2013-06-29 10:40:00,
2013-06-29 07:11:00,62.0,-99.9,-100.00,NE,42,13.0,16.0,-999,-99.99,,,-99.99,,2013-06-29 11:11:00,
2013-06-29 07:24:00,62.0,-99.9,-100.00,NE,42,13.0,16.0,-999,-99.99,,,-99.99,,2013-06-29 11:24:00,
2013-06-29 07:33:00,62.0,-99.9,-100.00,NE,42,13.0,16.0,-999,-99.99,,,-99.99,,2013-06-29 11:33:00,
2013-06-29 07:40:00,61.0,-99.9,-100.00,NE,40,15.0,17.0,-999,-99.99,,,-99.99,,2013-06-29 11:40:00,
2013-06-29 08:12:00,61.0,-99.9,-100.00,NE,40,15.0,17.0,-999,-99.99,,,-99.99,,2013-06-29 12:12:00,
2013-06-29 08:22:00,61.0,-99.9,-100.00,NE,40,15.0,17.0,-999,-99.99,,,-99.99,,2013-06-29 12:22:00,
2013-06-29 08:34:00,61.0,-99.9,-100.00,NE,40,15.0,17.0,-999,-99.99,,,-99.99,,2013-06-29 12:34:00,
2013-06-29 08:40:00,63.0,-99.9,-100.00,NE,44,12.0,14.0,-999,-99.99,,,-99.99,,2013-06-29 12:40:00,
2013-06-29 09:23:00,63.0,-99.9,-100.00,NE,44,12.0,14.0,-999,-99.99,,,-99.99,,2013-06-29 13:23:00,
2013-06-29 09:34:00,63.0,-99.9,-100.00,NE,44,12.0,14.0,-999,-99.99,,,-99.99,,2013-06-29 13:34:00,
2013-06-29 09:40:00,62.0,-99.9,-100.00,NE,54,10.0,11.0,-999,-99.99,,,-99.99,,2013-06-29 13:40:00,
2013-06-29 10:12:00,62.0,-99.9,-100.00,NE,54,10.0,11.0,-999,-99.99,,,-99.99,,2013-06-29 14:12:00,
2013-06-29 10:24:00,62.0,-99.9,-100.00,NE,54,10.0,11.0,-999,-99.99,,,-99.99,,2013-06-29 14:24:00,
2013-06-29 10:34:00,62.0,-99.9,-100.00,NE,54,10.0,11.0,-999,-99.99,,,-99.99,,2013-06-29 14:34:00,
2013-06-29 10:40:00,63.0,-99.9,-100.00,NE,35,8.0,11.0,-999,-99.99,,,-99.99,,2013-06-29 14:40:00,
2013-06-29 11:11:00,63.0,-99.9,-100.00,NE,35,8.0,11.0,-999,-99.99,,,-99.99,,2013-06-29 15:11:00,
2013-06-29 11:22:00,63.0,-99.9,-100.00,NE,35,8.0,11.0,-999,-99.99,,,-99.99,,2013-06-29 15:22:00,
2013-06-29 11:33:00,63.0,-99.9,-100.00,NE,35,8.0,11.0,-999,-99.99,,,-99.99,,2013-06-29 15:33:00,
2013-06-29 12:12:00,65.0,-99.9,-100.00,NNE,29,8.0,11.0,-999,-99.99,,,-99.99,,2013-06-29 16:12:00,
2013-06-29 12:34:00,66.0,-99.9,-100.00,NNE,23,5.0,19.0,-999,-99.99,,,-99.99,,2013-06-29 16:34:00,
2013-06-29 12:40:00,65.0,-99.9,-100.00,NNE,26,7.0,10.0,-999,-99.99,,,-99.99,,2013-06-29 16:40:00,
2013-06-29 12:43:00,66.0,-99.9,-100.00,NNE,23,5.0,19.0,-999,-99.99,,,-99.99,,2013-06-29 16:43:00,
2013-06-29 13:02:00,65.0,-99.9,-100.00,NNE,26,7.0,10.0,-999,-99.99,,,-99.99,,2013-06-29 17:02:00,
2013-06-29 13:12:00,65.0,-99.9,-100.00,NNE,26,7.0,10.0,-999,-99.99,,,-99.99,,2013-06-29 17:12:00,
2013-06-29 13:23:00,65.0,-99.9,-100.00,NNE,26,7.0,10.0,-999,-99.99,,,-99.99,,2013-06-29 17:23:00,
2013-06-29 13:34:00,65.0,-99.9,-100.00,NNE,26,7.0,10.0,-999,-99.99,,,-99.99,,2013-06-29 17:34:00,
2013-06-29 13:40:00,66.0,-99.9,-100.00,North,355,7.0,7.0,-999,-99.99,,,-99.99,,2013-06-29 17:40:00,
2013-06-29 14:12:00,66.0,-99.9,-100.00,North,355,7.0,7.0,-999,-99.99,,,-99.99,,2013-06-29 18:12:00,
2013-06-29 14:22:00,66.0,-99.9,-100.00,North,355,7.0,7.0,-999,-99.99,,,-99.99,,2013-06-29 18:22:00,
2013-06-29 14:34:00,66.0,-99.9,-100.00,North,355,7.0,7.0,-999,-99.99,,,-99.99,,2013-06-29 18:34:00,
2013-06-29 14:40:00,67.0,-99.9,-100.00,NNE,24,7.0,10.0,-999,-99.99,,,-99.99,,2013-06-29 18:40:00,
2013-06-29 15:12:00,67.0,-99.9,-100.00,NNE,24,7.0,10.0,-999,-99.99,,,-99.99,,2013-06-29 19:12:00,
2013-06-29 15:22:00,67.0,-99.9,-100.00,NNE,24,7.0,10.0,-999,-99.99,,,-99.99,,2013-06-29 19:22:00,
2013-06-29 15:34:00,67.0,-99.9,-100.00,NNE,24,7.0,10.0,-999,-99.99,,,-99.99,,2013-06-29 19:34:00,
2013-06-29 15:40:00,66.0,-99.9,-100.00,NE,39,12.0,15.0,-999,-99.99,,,-99.99,,2013-06-29 19:40:00,
2013-06-29 16:12:00,66.0,-99.9,-100.00,NE,39,12.0,15.0,-999,-99.99,,,-99.99,,2013-06-29 20:12:00,
2013-06-29 16:23:00,66.0,-99.9,-100.00,NE,39,12.0,15.0,-999,-99.99,,,-99.99,,2013-06-29 20:23:00,
2013-06-29 16:33:00,66.0,-99.9,-100.00,NE,39,12.0,15.0,-999,-99.99,,,-99.99,,2013-06-29 20:33:00,
2013-06-29 17:40:00,66.0,-99.9,-100.00,NNE,31,13.0,14.0,-999,-99.99,,,-99.99,,2013-06-29 21:40:00,
2013-06-29 18:33:00,66.0,-99.9,-100.00,NNE,31,13.0,14.0,-999,-99.99,,,-99.99,,2013-06-29 22:33:00,
2013-06-29 18:40:00,68.0,-99.9,-100.00,North,10,7.0,10.0,-999,-99.99,,,-99.99,,2013-06-29 22:40:00,
2013-06-29 19:12:00,68.0,-99.9,-100.00,North,10,7.0,10.0,-999,-99.99,,,-99.99,,2013-06-29 23:12:00,
2013-06-29 19:24:00,68.0,-99.9,-100.00,North,10,7.0,10.0,-999,-99.99,,,-99.99,,2013-06-29 23:24:00,
2013-06-29 19:34:00,68.0,-99.9,-100.00,North,10,7.0,10.0,-999,-99.99,,,-99.99,,2013-06-29 23:34:00,
2013-06-29 19:40:00,67.0,-99.9,-100.00,NNW,336,8.0,9.0,-999,-99.99,,,-99.99,,2013-06-29 23:40:00,
2013-06-29 20:12:00,67.0,-99.9,-100.00,NNW,336,8.0,9.0,-999,-99.99,,,-99.99,,2013-06-30 00:12:00,
2013-06-29 20:22:00,67.0,-99.9,-100.00,NNW,336,8.0,9.0,-999,-99.99,,,-99.99,,2013-06-30 00:22:00,
2013-06-29 20:34:00,67.0,-99.9,-100.00,NNW,336,8.0,9.0,-999,-99.99,,,-99.99,,2013-06-30 00:34:00,
2013-06-29 20:40:00,65.0,-99.9,-100.00,NW,320,4.0,7.0,-999,-99.99,,,-99.99,,2013-06-30 00:40:00,
2013-06-29 21:12:00,65.0,-99.9,-100.00,NW,320,4.0,7.0,-999,-99.99,,,-99.99,,2013-06-30 01:12:00,
2013-06-29 21:22:00,65.0,-99.9,-100.00,NW,320,4.0,7.0,-999,-99.99,,,-99.99,,2013-06-30 01:22:00,
2013-06-29 21:33:00,65.0,-99.9,-100.00,NW,320,4.0,7.0,-999,-99.99,,,-99.99,,2013-06-30 01:33:00,
2013-06-29 21:40:00,64.0,-99.9,-100.00,North,351,11.0,14.0,-999,-99.99,,,-99.99,,2013-06-30 01:40:00,
2013-06-29 22:12:00,64.0,-99.9,-100.00,North,351,11.0,14.0,-999,-99.99,,,-99.99,,2013-06-30 02:12:00,
2013-06-29 22:24:00,64.0,-99.9,-100.00,North,351,11.0,14.0,-999,-99.99,,,-99.99,,2013-06-30 02:24:00,
2013-06-29 22:34:00,64.0,-99.9,-100.00,North,351,11.0,14.0,-999,-99.99,,,-99.99,,2013-06-30 02:34:00,
2013-06-29 22:40:00,62.0,-99.9,-100.00,North,352,14.0,18.0,-999,-99.99,,,-99.99,,2013-06-30 02:40:00,
2013-06-29 23:12:00,62.0,-99.9,-100.00,North,352,14.0,18.0,-999,-99.99,,,-99.99,,2013-06-30 03:12:00,
2013-06-29 23:23:00,62.0,-99.9,-100.00,North,352,14.0,18.0,-999,-99.99,,,-99.99,,2013-06-30 03:23:00,
2013-06-29 23:34:00,62.0,-99.9,-100.00,North,352,14.0,18.0,-999,-99.99,,,-99.99,,2013-06-30 03:34:00,
2013-06-29 23:40:00,62.0,-99.9,-100.00,North,3,11.0,16.0,-999,-99.99,,,-99.99,,2013-06-30 03:40:00,